Weather History for KMOB - March, 2014

Change the Weather History Date:

Monday, March 3, 2014

  Actual Average Record
Temperature  
Mean Temperature 48 °F 58 °F  
Max Temperature 64 °F 68 °F 81 °F (1910)
Min Temperature 32 °F 47 °F 23 °F (1980)
Degree Days  
Heating Degree Days 17 8  
Month to date heating degree days 23 25  
Since 1 July heating degree days 1730 1467  
Cooling Degree Days 0 1  
Month to date cooling degree days 0 3  
Year to date cooling degree days 7 19  
Moisture  
Dew Point 46 °F    
Average Humidity 80    
Maximum Humidity 100    
Minimum Humidity 59    
Precipitation  
Precipitation 0.02 in 0.20 in 5.14 in (1979)
Month to date precipitation 0.02 0.60  
Year to date precipitation 7.14 11.37  
Snow  
Snow 0.00 in 0.00 in - ()
Month to date snowfall 0.0 0.0  
Since 1 July snowfall 1.3 0.1  
Snow Depth 0.00 in    
Sea Level Pressure  
Sea Level Pressure 30.06 in    
Wind  
Wind Speed 15 mph (NW)    
Max Wind Speed 23 mph    
Max Gust Speed 29 mph    
Visibility 8 miles    
Events Rain    
T = Trace of Precipitation, MM = Missing Value Source: NWS Daily Summary

Daily Weather History Graph

Daily Weather History Graph

Search for Another Location

Airport or City:

Trip Planner

Search our weather history database for the weather conditions in past years. The results will help you decide how hot, cold, wet, or windy it might be!

Date:

Astronomy

Mar. 03, 2014 Rise Set
Actual Time 6:17 AM CST 5:53 PM CST
Civil Twilight 5:52 AM CST 6:17 PM CST
Nautical Twilight 5:25 AM CST 6:45 PM CST
Astronomical Twilight 4:57 AM CST 7:13 PM CST
Moon 7:38 AM CST (3/3) 8:40 PM CST (3/3)
Length of Visible Light 12h 24m
Length of Day
11h 36m
Waxing Crescent, 8% of the Moon is Illuminated
Mar 3
Waxing Crescent
Mar 8
First Quarter
Mar 16
Full
Mar 23
Last Quarter
Mar 30
New

Hourly Weather History & Observations

Time (CST) Temp. Windchill Dew Point Humidity Pressure Visibility Wind Dir Wind Speed Gust Speed Precip Events Conditions
12:56 AM 60.1 °F - 60.1 °F 100% 29.99 in 10.0 mi South 8.1 mph - N/A   Clear
1:56 AM 61.0 °F - 61.0 °F 100% 29.94 in 10.0 mi South 9.2 mph - N/A   Clear
2:22 AM 61.0 °F - 61.0 °F 100% 29.94 in 10.0 mi South 10.4 mph - N/A   Scattered Clouds
2:56 AM 62.1 °F - 62.1 °F 100% 29.92 in 9.0 mi South 12.7 mph - N/A   Mostly Cloudy
3:23 AM 62.1 °F - 62.1 °F 100% 29.93 in 10.0 mi South 8.1 mph - N/A   Overcast
3:34 AM 62.1 °F - 62.1 °F 100% 29.93 in 10.0 mi SSW 9.2 mph - N/A   Overcast
3:56 AM 62.1 °F - 62.1 °F 100% 29.93 in 10.0 mi SSW 10.4 mph - N/A   Overcast
4:56 AM 63.0 °F - 63.0 °F 100% 29.92 in 10.0 mi SSW 11.5 mph - N/A   Overcast
5:10 AM 63.0 °F - 63.0 °F 100% 29.93 in 10.0 mi SSW 11.5 mph - N/A   Overcast
5:20 AM 64.0 °F - 63.0 °F 96% 29.94 in 10.0 mi SSW 12.7 mph - N/A   Overcast
5:56 AM 63.0 °F - 63.0 °F 100% 29.94 in 3.0 mi SSW 5.8 mph - 0.01 in   Overcast
6:11 AM 63.0 °F - 63.0 °F 100% 29.93 in 4.0 mi SSW 8.1 mph - N/A   Overcast
6:56 AM 64.0 °F - 63.0 °F 96% 29.96 in 4.0 mi SW 11.5 mph 17.3 mph N/A   Overcast
7:56 AM 62.1 °F - 62.1 °F 100% 29.99 in 3.0 mi WNW 17.3 mph 27.6 mph 0.00 in Rain Light Rain
8:27 AM 51.1 °F - 51.1 °F 100% 30.03 in 3.0 mi NNW 18.4 mph 28.8 mph 0.01 in Rain Light Rain
8:41 AM 48.0 °F - 48.0 °F 100% 30.06 in 2.5 mi NNW 16.1 mph 28.8 mph 0.01 in Rain Light Rain
8:56 AM 46.9 °F - 46.9 °F 100% 30.06 in 1.0 mi NW 11.5 mph 21.9 mph 0.01 in Rain Light Rain
9:29 AM 45.0 °F 37.6 °F 45.0 °F 100% 30.08 in 1.0 mi NNW 17.3 mph 26.5 mph 0.00 in   Overcast
9:39 AM 45.0 °F 38.5 °F 45.0 °F 100% 30.09 in 2.0 mi NW 13.8 mph 25.3 mph 0.00 in Rain Light Rain
9:56 AM 44.1 °F 37.7 °F 44.1 °F 100% 30.10 in 2.0 mi NW 12.7 mph 25.3 mph 0.00 in Rain Light Rain
10:17 AM 44.1 °F 37.7 °F 43.0 °F 96% 30.10 in 4.0 mi NW 12.7 mph 25.3 mph 0.00 in Rain Light Rain
10:56 AM 44.1 °F 35.4 °F 42.1 °F 93% 30.11 in 10.0 mi NNW 21.9 mph 25.3 mph 0.00 in   Overcast
11:16 AM 46.0 °F 38.0 °F 42.1 °F 86% 30.12 in 10.0 mi NNW 21.9 mph 28.8 mph N/A   Overcast
11:56 AM 46.0 °F 39.3 °F 41.0 °F 83% 30.11 in 10.0 mi NNW 16.1 mph 21.9 mph N/A   Overcast
12:40 PM 46.9 °F - 39.9 °F 77% 30.10 in 10.0 mi NNW 17.3 mph 25.3 mph N/A   Overcast
12:56 PM 48.0 °F - 39.9 °F 74% 30.09 in 10.0 mi NNW 17.3 mph 25.3 mph N/A   Mostly Cloudy
1:17 PM 50.0 °F - 39.0 °F 66% 30.09 in 10.0 mi NNW 17.3 mph 24.2 mph N/A   Scattered Clouds
1:56 PM 51.1 °F - 37.9 °F 61% 30.08 in 10.0 mi NNW 19.6 mph 25.3 mph N/A   Scattered Clouds
2:56 PM 50.0 °F - 37.0 °F 61% 30.08 in 10.0 mi NNW 15.0 mph 23.0 mph N/A   Scattered Clouds
3:56 PM 46.0 °F 39.0 °F 35.1 °F 66% 30.11 in 10.0 mi NNW 17.3 mph - N/A   Scattered Clouds
4:56 PM 41.0 °F 32.5 °F 33.1 °F 73% 30.13 in 10.0 mi North 17.3 mph 24.2 mph N/A   Scattered Clouds
5:56 PM 37.9 °F 30.0 °F 32.0 °F 79% 30.14 in 10.0 mi North 12.7 mph 25.3 mph N/A   Scattered Clouds
6:03 PM 37.9 °F 28.9 °F 32.0 °F 79% 30.14 in 10.0 mi North 16.1 mph 23.0 mph N/A   Overcast
6:56 PM 37.0 °F 27.7 °F 30.0 °F 76% 30.15 in 10.0 mi North 16.1 mph - N/A   Overcast
7:56 PM 35.1 °F 24.1 °F 28.9 °F 78% 30.17 in 8.0 mi North 19.6 mph 25.3 mph N/A   Overcast
8:56 PM 34.0 °F 23.8 °F 28.0 °F 79% 30.19 in 10.0 mi North 16.1 mph 23.0 mph N/A   Overcast
9:56 PM 32.0 °F 20.5 °F 27.0 °F 82% 30.19 in 10.0 mi North 18.4 mph - N/A   Overcast
10:56 PM 32.0 °F 21.6 °F 27.0 °F 82% 30.19 in 10.0 mi NNE 15.0 mph - N/A   Overcast
11:56 PM 32.0 °F 21.2 °F 27.0 °F 82% 30.18 in 10.0 mi North 16.1 mph - N/A   Overcast